Weather History for Yenbo, Saudi Arabia

Change the Weather History Date:

Wednesday, February 13, 2013

  Actual Average Record
Temperature  
Mean Temperature 73 °F -  
Max Temperature 87 °F 84 °F 89 °F (1999)
Min Temperature 59 °F 59 °F 50 °F (2007)
Cooling Degree Days 8    
Growing Degree Days 23 (Base 50)    
Moisture  
Dew Point 52 °F    
Average Humidity 49    
Maximum Humidity 77    
Minimum Humidity 12    
Precipitation  
Precipitation 0.00 in - - ()
Sea Level Pressure  
Sea Level Pressure 29.85 in    
Wind  
Wind Speed 5 mph ()    
Max Wind Speed 16 mph    
Max Gust Speed -    
Visibility 5.8 miles    
Events      
Averages and records for this station are not official NWS values.
T = Trace of Precipitation, MM = Missing Value Source: Averaged Metar Reports

Daily Weather History Graph

Daily Weather History Graph

Search for Another Location

Airport:

Trip Planner

Search our weather history database for the weather conditions in past years. The results will help you decide how hot, cold, wet, or windy it might be!

Date:

Astronomy

Feb. 13, 2013 Rise Set
Actual Time 7:02 AM AST 6:21 PM AST
Civil Twilight 6:39 AM AST 6:44 PM AST
Nautical Twilight 6:12 AM AST 7:11 PM AST
Astronomical Twilight 5:46 AM AST 7:38 PM AST
Moon 8:48 AM AST (2/13) 9:31 PM AST (2/13)
Length of Visible Light 12h 05m
Length of Day
11h 19m
Waxing Crescent, 11% of the Moon is Illuminated
Feb 13
Waxing Crescent
Feb 17
First Quarter
Feb 25
Full
Mar 5
Last Quarter
Mar 11
New

Hourly Weather History & Observations

Time (AST) Temp. Heat Index Dew Point Humidity Pressure Visibility Wind Dir Wind Speed Gust Speed Precip Events Conditions
12:00 AM 68 °F - 55 °F 55% 29.86 in 6 mi West 9.2 mph - -  
12:00 AM 68.0 °F - 55.4 °F 64% 29.83 in - West 9.2 mph - N/A   Clear
1:00 AM 66.2 °F - 53.6 °F 64% 29.86 in - WNW 2.3 mph - N/A   Clear
2:00 AM 64.4 °F - 51.8 °F 64% 29.83 in - WNW 2.3 mph - N/A   Clear
3:00 AM 63 °F - 52 °F 58% 29.85 in 6 mi West 2.3 mph - -  
3:00 AM 62.6 °F - 51.8 °F 68% 29.83 in - West 2.3 mph - N/A   Clear
4:00 AM 60.8 °F - 50.0 °F 68% 29.83 in - Calm Calm - N/A   Clear
5:00 AM 60.8 °F - 50.0 °F 68% 29.83 in - Calm Calm - N/A   Clear
6:00 AM 61 °F - 48 °F 53% 29.85 in 6 mi Calm Calm - -  
6:00 AM 60.8 °F - 48.2 °F 63% 29.83 in - Calm Calm - N/A   Clear
7:00 AM 59.0 °F - 50.0 °F 72% 29.86 in 6.2 mi Calm Calm - N/A   Partly Cloudy
8:00 AM 60.8 °F - 53.6 °F 77% 29.89 in - Calm Calm - N/A   Clear
9:00 AM 65 °F - 55 °F 63% 29.90 in 6 mi Calm Calm - -   Scattered Clouds
9:00 AM 64.4 °F - 55.4 °F 73% 29.89 in - Calm Calm - N/A   Clear
10:00 AM 73.4 °F - 53.6 °F 50% 29.89 in - Calm Calm - N/A   Clear
11:00 AM 78.8 °F - 50.0 °F 36% 29.92 in - ENE 5.8 mph - N/A   Clear
12:00 PM 85 °F - 41 °F 12% 29.91 in 6 mi SSE 6.9 mph - -   Scattered Clouds
12:00 PM 84.2 °F - 41.0 °F 22% 29.89 in - SSE 6.9 mph - N/A   Clear
1:00 PM 86.0 °F - 39.2 °F 19% 29.86 in - SSW 9.2 mph - N/A   Clear
2:00 PM 86.0 °F - 51.8 °F 31% 29.83 in - SSW 11.5 mph - N/A   Clear
3:00 PM 85 °F - 54 °F 24% 29.83 in 6 mi West 11.5 mph - -   Scattered Clouds
3:00 PM 86.0 °F 84.2 °F 53.6 °F 33% 29.80 in - West 11.5 mph - N/A   Clear
4:00 PM 84.2 °F 83.0 °F 55.4 °F 37% 29.80 in - WSW 13.8 mph - N/A   Clear
5:00 PM 84.2 °F 82.8 °F 53.6 °F 35% 29.80 in - WSW 16.1 mph - N/A   Clear
6:00 PM 82 °F - 55 °F 30% 29.83 in 6 mi West 11.5 mph - -   Clear
6:00 PM 82.4 °F 81.7 °F 55.4 °F 39% 29.83 in - West 11.5 mph - N/A   Clear
7:00 PM 78.8 °F - 55.4 °F 44% 29.80 in 5.0 mi West 11.5 mph - N/A   Unknown
8:00 PM 77.0 °F - 57.2 °F 50% 29.83 in 5.0 mi West 11.5 mph - N/A   Unknown
9:00 PM 75 °F - 55 °F 40% 29.85 in 6 mi West 11.5 mph - -   Scattered Clouds
9:00 PM 75.2 °F - 55.4 °F 50% 29.83 in - West 11.5 mph - N/A   Clear
10:00 PM 73.4 °F - 55.4 °F 53% 29.83 in - West 9.2 mph - N/A   Clear
11:00 PM 73.4 °F - 53.6 °F 50% 29.83 in - WNW 6.9 mph - N/A   Clear